Weather Roundup
Issued by NWS Corpus Christi, TX

Home | Current Version | Previous Version | Text Only | Print | Product List | Glossary On
Versions: 1 2 3 4 5 6 7 8 9 10 11 12 13 14 15 16 17 18 19 20 21 22 23 24 25 26 27 28 29 30 31 32 33 34 35 36 37 38 39 40 41 42 43 44 45 46 47 48 49 50
098
ASUS44 KCRP 261410
HRRCRP

SOUTH TEXAS REGIONAL WEATHER ROUNDUP
NATIONAL WEATHER SERVICE CORPUS CHRISTI TX
900 AM CDT MON JUN 26 2017


TXZ229>244-261500-
...CORPUS CHRISTI AREA OBSERVATIONS...

CITY           SKY/WX    TMP DP  RH WIND       PRES   REMARKS
CORPUS CHRISTI PTSUNNY   85  76  74 NE7       30.07R HX  94
NAS CORPUS CHR PTSUNNY   82  77  84 CALM      30.07R HX  90
ROCKPORT       LGT RAIN  81  74  79 NE6       30.07R
KINGSVILLE NAS CLOUDY    82  77  84 NE8       30.07R HX  90
ALICE          SUNNY     83  74  74 NE8       30.07R
ORANGE GROVE   NOT AVBL
FALFURRIAS     MOSUNNY   81  76  84 NE5       30.07R
$$

...VICTORIA AREA OBSERVATIONS...

CITY           SKY/WX    TMP DP  RH WIND       PRES   REMARKS
VICTORIA       MOSUNNY   79  74  84 NE8       30.09R
BEEVILLE       FAIR      80  80 100 E6        30.08S HX  90
PLEASANTON     SUNNY     80  73  81 E3        30.11R
SAN ANTONIO    PTSUNNY   77  72  84 VRB3      30.13R
$$

...LAREDO AREA OBSERVATIONS...

CITY           SKY/WX    TMP DP  RH WIND       PRES   REMARKS
LAREDO         MOSUNNY   77  73  88 NE8       30.10R
COTULLA        CLOUDY    78  73  84 E5        30.09S
DEL RIO        CLOUDY    76  72  87 E5        30.13R
MCALLEN        SUNNY     85  76  74 NE7       30.05R HX  94
HEBBRONVILLE   PTSUNNY   77  73  89 E3        30.10R
$$

...OTHER TEXAS OBSERVATIONS...

CITY           SKY/WX    TMP DP  RH WIND       PRES   REMARKS
BROWNSVILLE    MOSUNNY   83  77  82 N6        30.04R HX  92
HOUSTON        CLOUDY    76  70  82 E7        30.13R
COL. STATION   CLOUDY    73  73 100 E8        30.13R
AUSTIN         PTSUNNY   78  73  84 E7        30.14R
WACO           CLOUDY    76  72  87 E5        30.16R
FORT WORTH     CLOUDY    76  66  71 SE8       30.16R
WICHITA FALLS  CLOUDY    71  64  78 E6        30.18R
LUBBOCK        PTSUNNY   68  61  78 E9        30.24R
EL PASO        PTSUNNY   72  64  76 E3        30.22R
$$

...MARINE OBSERVATIONS...

STATION/POSITION TIME  SKY/WX   TEMP    WIND        PRES    VSBY  WAVE   SWELL
                                AIR SEA DIR/SP/G                  HT/PER HT/PER
                 (UTC)          (F)     (DEG/KT/KT) (MB)    (MI)  (FT/S) (FT/S)
PORT ARANSAS     1400            82 84   70/  6/  7 1018.2R
BUOY 90 E PORT A 1250            82 84   40/  8/ 10 1017.6          2/ 7   2/ 7
BUOY 45 SE BAFFI 1250            83     120/ 10/ 12 1016.1          3/ 5   2/ 5
BUOY 200 E PT IS 1250            81 83   70/  8/ 10 1017.4          3/ 6   3/ 6
BUOY 15 E GALVES 1250            79 83   70/  8/ 10 1018.5          2/ 4   2/ 4
$$




USA.gov is the U.S. government's official web portal to all federal, state and local government web resources and services.